Weather History for Amarillo, TX

Change the Weather History Date:

Thursday, February 21, 2013

  Actual Average Record
Temperature  
Mean Temperature 29 °F 42 °F  
Max Temperature 34 °F 56 °F 81 °F (1996)
Min Temperature 23 °F 28 °F 5 °F (1894)
Degree Days  
Heating Degree Days 36 23  
Month to date heating degree days 489 535  
Since 1 July heating degree days 2655 3120  
Cooling Degree Days 0 0  
Month to date cooling degree days 0 0  
Year to date cooling degree days 0 0  
Moisture  
Dew Point 27 °F    
Average Humidity 87    
Maximum Humidity 100    
Minimum Humidity 74    
Precipitation  
Precipitation 0.30 in 0.02 in 1.25 in (1971)
Month to date precipitation 1.04 0.42  
Year to date precipitation 1.80 1.14  
Snow  
Snow 1.50 in 0.10 in 11.40 in (1971)
Month to date snowfall 6.2 2.5  
Since 1 July snowfall 10.2 13.6  
Snow Depth 1.00 in    
Sea Level Pressure  
Sea Level Pressure 29.69 in    
Wind  
Wind Speed 15 mph (East)    
Max Wind Speed 28 mph    
Max Gust Speed 33 mph    
Visibility 6 miles    
Events Fog , Rain , Snow    
T = Trace of Precipitation, MM = Missing Value Source: NWS Daily Summary

Daily Weather History Graph

Daily Weather History Graph

Search for Another Location

Airport:

Trip Planner

Search our weather history database for the weather conditions in past years. The results will help you decide how hot, cold, wet, or windy it might be!

Date:

Astronomy

Feb. 21, 2013 Rise Set
Actual Time 7:25 AM CST 6:35 PM CST
Civil Twilight 7:00 AM CST 7:01 PM CST
Nautical Twilight 6:30 AM CST 7:30 PM CST
Astronomical Twilight 6:01 AM CST 8:00 PM CST
Moon 2:57 PM CST (2/21) 4:26 AM CST (2/21)
Length of Visible Light 12h 00m
Length of Day
11h 09m
Waxing Gibbous, 84% of the Moon is Illuminated
Feb 21
Waxing Gibbous
Feb 25
Full
Mar 4
Last Quarter
Mar 11
New
Mar 19
First Quarter

Hourly Weather History & Observations

Time (CST) Temp. Windchill Dew Point Humidity Pressure Visibility Wind Dir Wind Speed Gust Speed Precip Events Conditions
12:05 AM 33.8 °F 25.8 °F 30.2 °F 87% 29.65 in 4.0 mi East 10.4 mph - 0.06 in Rain Light Freezing Rain
12:34 AM 33.8 °F 22.5 °F 30.2 °F 87% 29.66 in 6.0 mi ESE 19.6 mph - 0.14 in Rain Light Freezing Rain
12:48 AM 33.8 °F 23.2 °F 30.2 °F 87% 29.67 in 4.0 mi ESE 17.3 mph - 0.16 in Snow Light Snow
12:49 AM 33.8 °F 23.2 °F 30.2 °F 87% 29.67 in 4.0 mi ESE 17.3 mph - 0.16 in Snow Light Snow
12:53 AM 33.1 °F 22.2 °F 30.9 °F 92% 29.68 in 3.0 mi ESE 17.3 mph - 0.17 in Snow Light Snow
1:01 AM 33.8 °F 24.8 °F 30.2 °F 87% 29.68 in 1.8 mi ESE 12.7 mph 20.7 mph 0.01 in Snow Light Snow
1:11 AM 33.8 °F 24.3 °F 30.2 °F 87% 29.68 in 2.5 mi ESE 13.8 mph - 0.01 in Snow Light Snow
1:32 AM 33.8 °F 30.8 °F 30.2 °F 87% 29.68 in 1.5 mi ESE 3.5 mph - 0.04 in Snow Light Snow
1:53 AM 33.1 °F 26.9 °F 30.0 °F 89% 29.72 in 0.8 mi SE 6.9 mph - 0.07 in Snow Light Snow
2:00 AM 32.0 °F 24.8 °F 30.2 °F 93% 29.69 in 0.5 mi East 8.1 mph - 0.03 in Fog , Snow Snow
2:08 AM 32.0 °F 21.2 °F 30.2 °F 93% 29.66 in 1.0 mi East 16.1 mph - 0.05 in Snow Light Snow
2:30 AM 32.0 °F 21.6 °F 28.4 °F 87% 29.65 in 2.0 mi ESE 15.0 mph - 0.07 in Snow Light Snow
2:40 AM 32.0 °F 21.2 °F 28.4 °F 87% 29.64 in 4.0 mi ESE 16.1 mph - 0.07 in Snow Light Snow
2:53 AM 30.9 °F 19.8 °F 28.9 °F 92% 29.66 in 6.0 mi ESE 16.1 mph - 0.07 in   Overcast
3:34 AM 30.2 °F 16.2 °F 28.4 °F 93% 29.58 in 7.0 mi East 25.3 mph - 0.01 in   Overcast
3:53 AM 30.9 °F 17.2 °F 28.0 °F 89% 29.62 in 10.0 mi SE 25.3 mph 32.2 mph 0.01 in   Overcast
4:23 AM 30.2 °F 16.8 °F 28.4 °F 93% 29.57 in 9.0 mi ESE 23.0 mph - N/A   Overcast
4:53 AM 30.0 °F 16.3 °F 28.0 °F 92% 29.57 in 10.0 mi ESE 24.2 mph 29.9 mph N/A   Overcast
5:28 AM 30.2 °F 16.2 °F 28.4 °F 93% 29.54 in 1.5 mi ESE 25.3 mph - N/A   Overcast
5:32 AM 30.2 °F 17.1 °F 26.6 °F 86% 29.55 in 0.8 mi ESE 21.9 mph - N/A   Mist
5:53 AM 30.0 °F 17.2 °F 28.0 °F 92% 29.56 in 0.8 mi SE 20.7 mph 26.5 mph N/A   Mist
6:01 AM 30.2 °F 17.1 °F 28.4 °F 93% 29.53 in 1.2 mi SE 21.9 mph 28.8 mph N/A   Overcast
6:10 AM 30.2 °F 16.8 °F 28.4 °F 93% 29.54 in 0.8 mi ESE 23.0 mph - N/A   Mist
6:28 AM 30.2 °F 18.9 °F 28.4 °F 93% 29.55 in 0.5 mi SE 16.1 mph - N/A Fog Light Freezing Fog
6:53 AM 30.0 °F 18.7 °F 28.9 °F 96% 29.60 in 0.5 mi South 16.1 mph 19.6 mph N/A Fog Light Freezing Fog
7:03 AM 30.2 °F 17.4 °F 28.4 °F 93% 29.57 in 0.2 mi SSE 20.7 mph - N/A Fog Light Freezing Fog
7:17 AM 30.2 °F 17.4 °F 28.4 °F 93% 29.57 in 0.2 mi SSE 20.7 mph - N/A Fog Light Freezing Fog
7:53 AM 30.0 °F 18.3 °F 28.9 °F 96% 29.60 in 0.2 mi SSE 17.3 mph 26.5 mph N/A Fog Light Freezing Fog
8:53 AM 30.0 °F 20.5 °F 28.9 °F 96% 29.62 in 0.2 mi SE 11.5 mph - N/A Fog Light Freezing Fog
9:37 AM 30.2 °F 20.2 °F 28.4 °F 93% 29.59 in 0.2 mi SE 12.7 mph - 0.01 in Fog , Snow Light Snow
9:53 AM 30.9 °F 21.7 °F 30.0 °F 96% 29.60 in 0.2 mi SSE 11.5 mph - 0.01 in   Mist
10:26 AM 32.0 °F 24.8 °F 32.0 °F 100% 29.59 in 1.5 mi SSE 8.1 mph - 0.00 in Snow Light Snow
10:53 AM 33.1 °F 24.4 °F 30.9 °F 92% 29.60 in 3.0 mi SSE 11.5 mph - 0.00 in   Overcast
11:08 AM 33.8 °F 25.8 °F 30.2 °F 87% 29.59 in 3.0 mi South 10.4 mph - N/A   Overcast
11:15 AM 33.8 °F 25.3 °F 30.2 °F 87% 29.60 in 3.0 mi SSE 11.5 mph - N/A   Overcast
11:29 AM 33.8 °F 27.7 °F 30.2 °F 87% 29.60 in 3.0 mi SSW 6.9 mph - N/A   Overcast
11:53 AM 33.1 °F 22.6 °F 30.0 °F 89% 29.65 in 7.0 mi NNW 16.1 mph 20.7 mph N/A   Overcast
12:00 PM 33.8 °F 23.2 °F 30.2 °F 87% 29.64 in 7.0 mi NNW 17.3 mph - N/A   Overcast
12:45 PM 33.8 °F 23.2 °F 30.2 °F 87% 29.67 in 10.0 mi NNW 17.3 mph - 0.00 in   Overcast
12:53 PM 33.1 °F 23.0 °F 28.9 °F 85% 29.70 in 10.0 mi NNW 15.0 mph 23.0 mph 0.00 in   Overcast
1:16 PM 33.8 °F 22.2 °F 28.4 °F 81% 29.69 in 10.0 mi NNW 20.7 mph 26.5 mph N/A   Overcast
1:37 PM 32.0 °F 19.8 °F 28.4 °F 87% 29.69 in 10.0 mi North 20.7 mph 28.8 mph N/A   Overcast
1:44 PM 32.0 °F 19.8 °F 28.4 °F 87% 29.70 in 10.0 mi North 20.7 mph 27.6 mph N/A   Overcast
1:53 PM 32.0 °F 19.5 °F 28.0 °F 85% 29.72 in 10.0 mi North 21.9 mph 27.6 mph N/A   Overcast
2:53 PM 30.0 °F 19.1 °F 26.1 °F 85% 29.78 in 10.0 mi North 15.0 mph - N/A   Overcast
3:29 PM 28.4 °F 16.6 °F 24.8 °F 86% 29.76 in 10.0 mi North 16.1 mph - N/A   Overcast
3:53 PM 28.9 °F 19.2 °F 24.1 °F 82% 29.81 in 10.0 mi NNW 11.5 mph - N/A   Overcast
4:44 PM 28.4 °F 17.5 °F 24.8 °F 86% 29.79 in 10.0 mi North 13.8 mph - N/A   Overcast
4:53 PM 28.9 °F 18.2 °F 23.0 °F 78% 29.83 in 10.0 mi North 13.8 mph - N/A   Overcast
5:01 PM 28.4 °F 16.6 °F 23.0 °F 80% 29.79 in 10.0 mi North 16.1 mph - N/A   Overcast
5:12 PM 28.4 °F 18.5 °F 21.2 °F 74% 29.80 in 10.0 mi North 11.5 mph - N/A   Overcast
5:53 PM 26.1 °F 13.6 °F 21.0 °F 81% 29.85 in 10.0 mi North 16.1 mph - N/A   Mostly Cloudy
6:06 PM 26.6 °F 14.7 °F 19.4 °F 74% 29.82 in 10.0 mi North 15.0 mph - N/A   Scattered Clouds
6:53 PM 25.0 °F 12.6 °F 19.9 °F 81% 29.90 in 10.0 mi North 15.0 mph - N/A   Mostly Cloudy
7:53 PM 25.0 °F 11.3 °F 19.0 °F 78% 29.90 in 10.0 mi North 18.4 mph - N/A   Mostly Cloudy
8:53 PM 24.1 °F 11.5 °F 18.0 °F 77% 29.94 in 10.0 mi North 15.0 mph - N/A   Clear
9:53 PM 23.0 °F 14.7 °F 18.0 °F 81% 29.97 in 10.0 mi NNW 6.9 mph - N/A   Clear
10:53 PM 23.0 °F 13.1 °F 17.1 °F 78% 29.99 in 10.0 mi North 9.2 mph - N/A   Clear
11:53 PM 23.0 °F 12.4 °F 17.1 °F 78% 29.98 in 10.0 mi North 10.4 mph - N/A   Clear